Retour au catalogue

STARLINK-32931

ActifCommunicationsVLEO
NORAD 63199·PAYLOAD·🇺🇸 United States

Lancé Mar 13, 2025 depuis Cape Canaveral Space Force Station

Loading…

Prochains Passages (prochaines 24 heures)

TLE

FraisSource: CelesTrak SupGP

Époque: Sep 15, 2026, 03:36 UTC

1 63199C 25048S   26258.15048611 -.00001193  00000+0 -43190-4 0  2580
2 63199  43.0004  95.3248 0001065 251.1153 264.4988 15.27591048    16

Suivez STARLINK-32931 en temps réel avec AllMySat

Download on the App Store